Regional Weather Roundup
Issued by NWS

Home | Current Version | Previous Version | Text Only | Print | Product List | Glossary On
Versions: 1 2 3 4 5 6 7 8 9 10 11 12 13 14 15 16 17 18 19 20 21 22 23 24 25 26 27 28 29 30 31 32 33 34 35 36 37 38 39 40 41 42 43 44 45 46 47 48 49 50
982
ASCA42 TJSJ 220610
RWRPR
PUERTO RICO/U.S. VIRGIN ISLANDS HOURLY WEATHER ROUNDUP
NATIONAL WEATHER SERVICE SAN JUAN PR
200 AM AST MON JAN 22 2018

PRZ001>002-007>008-010-220700-
PUERTO RICO

CITY           SKY/WX    TMP DP  RH WIND       PRES   REMARKS
SAN JUAN LMM   PTCLDY    75  72  88 SE3       30.00F
$$

VIZ001>002-220700-
U.S. VIRGIN ISLANDS

CITY           SKY/WX    TMP DP  RH WIND       PRES   REMARKS
CHARLOTTE AMA  CLEAR     75  72  88 E8        29.98F
CHRISTIANSTED  PTCLDY    75  72  88 E7        29.98F
$$

HOURLY WEATHER ROUNDUP FOR THE NEWS MEDIA

CITY           SKY/WX    TMP DP  RH WIND       PRES   REMARKS
ORLANDO        FAIR      58  57  97 CALM      30.15F
NEW YORK       CLOUDY    44  38  79 E6        30.16F
NEWARK         LGT RAIN  44  36  73 N6        30.16S
CHICAGO        FOG       43  43 100 SE3       29.81F VSB 1/8
HARTFORD       CLOUDY    30  28  92 CALM      30.19F
BOSTON         CLOUDY    35  30  82 CALM      30.19F
DALLAS         PTCLDY    60  15  17 SW5       29.84S
PHILADELPHIA   MOCLDY    44  35  70 CALM      30.14S
LOS ANGELES    PTCLDY    56  34  43 NW5       30.29S
WASHINGTON DC  MOCLDY    53  44  71 S7        30.12F



USA.gov is the U.S. government's official web portal to all federal, state and local government web resources and services.